Satellite: DO-64
Catalog number: 32789
Epoch time:      12040.68851948
Element set:     225
Inclination:      097.8303 deg
RA of node:       106.7096 deg
Eccentricity:    0.0015988
Arg of perigee:   117.7025 deg
Mean anomaly:     242.5801 deg
Mean motion:   14.84909300 rev/day
Decay rate:      2.932e-05 rev/day^2
Epoch rev:           20480
Checksum:              316

Satellite: CO-66
Catalog number: 32791
Epoch time:      12040.67728373
Element set:     212
Inclination:      097.8183 deg
RA of node:       104.6394 deg
Eccentricity:    0.0016755
Arg of perigee:   118.2785 deg
Mean anomaly:     242.0142 deg
Mean motion:   14.83000392 rev/day
Decay rate:      1.394e-05 rev/day^2
Epoch rev:           20469
Checksum:              300

Satellite: RS-30
Catalog number: 32953
Epoch time:      12040.91102933
Element set:     507
Inclination:      082.5019 deg
RA of node:       014.8995 deg
Eccentricity:    0.0017518
Arg of perigee:   226.3727 deg
Mean anomaly:     133.5904 deg
Mean motion:   12.43020780 rev/day
Decay rate:        1.0e-07 rev/day^2
Epoch rev:           16862
Checksum:              271

Satellite: TACSAT-3
Catalog number: 35001
Epoch time:      12039.71592599
Element set:    0870
Inclination:      040.4474 deg
RA of node:       158.7091 deg
Eccentricity:    0.0005624
Arg of perigee:   058.2516 deg
Mean anomaly:     301.8857 deg
Mean motion:   15.72506809 rev/day
Decay rate:     8.3376e-04 rev/day^2
Epoch rev:           15396
Checksum:              321

Satellite: PHARMSAT
Catalog number: 35002
Epoch time:      12039.75434883
Element set:     789
Inclination:      040.4659 deg
RA of node:       162.2210 deg
Eccentricity:    0.0005556
Arg of perigee:   202.3045 deg
Mean anomaly:     157.7539 deg
Mean motion:   15.64463591 rev/day
Decay rate:     4.2085e-04 rev/day^2
Epoch rev:           15393
Checksum:              298

Satellite: METEOR-M
Catalog number: 35865
Epoch time:      12040.72359953
Element set:     136
Inclination:      098.6732 deg
RA of node:       097.3551 deg
Eccentricity:    0.0003290
Arg of perigee:   069.1287 deg
Mean anomaly:     291.0235 deg
Mean motion:   14.21855089 rev/day
Decay rate:       -2.0e-07 rev/day^2
Epoch rev:           12434
Checksum:              292

Satellite: RS-38
Catalog number: 35869
Epoch time:      12040.83354548
Element set:     136
Inclination:      098.6701 deg
RA of node:       097.4781 deg
Eccentricity:    0.0005400
Arg of perigee:   067.6605 deg
Mean anomaly:     292.5144 deg
Mean motion:   14.22053343 rev/day
Decay rate:        4.0e-08 rev/day^2
Epoch rev:           12437
Checksum:              292

Satellite: JUGNU
Catalog number: 37839
Epoch time:      12038.43773030
Element set:    0083
Inclination:      019.9611 deg
RA of node:       070.3053 deg
Eccentricity:    0.0018603
Arg of perigee:   223.5355 deg
Mean anomaly:     136.3480 deg
Mean motion:   14.12022914 rev/day
Decay rate:       6.20e-06 rev/day^2
Epoch rev:           01674
Checksum:              256

Satellite: SRMSAT
Catalog number: 37841
Epoch time:      12039.44684889
Element set:    0084
Inclination:      019.9735 deg
RA of node:       066.5213 deg
Eccentricity:    0.0012319
Arg of perigee:   206.7344 deg
Mean anomaly:     153.2461 deg
Mean motion:   14.10113459 rev/day
Decay rate:       2.64e-06 rev/day^2
Epoch rev:           01686
Checksum:              293

Satellite: RAX-2
Catalog number: 37853
Epoch time:      12039.94403546
Element set:    0109
Inclination:      101.7123 deg
RA of node:       021.4113 deg
Eccentricity:    0.0251381
Arg of perigee:   358.9570 deg
Mean anomaly:     001.1065 deg
Mean motion:   14.78763399 rev/day
Decay rate:      5.956e-05 rev/day^2
Epoch rev:           01529
Checksum:              293

Satellite: AUBIESAT
Catalog number: 37854
Epoch time:      12039.86078466
Element set:    0099
Inclination:      101.7140 deg
RA of node:       021.3802 deg
Eccentricity:    0.0252366
Arg of perigee:   358.7387 deg
Mean anomaly:     001.3155 deg
Mean motion:   14.79048434 rev/day
Decay rate:      7.091e-05 rev/day^2
Epoch rev:           01526
Checksum:              298

Satellite: HRBE
Catalog number: 37855
Epoch time:      12040.87886036
Element set:      94
Inclination:      101.7178 deg
RA of node:       022.8554 deg
Eccentricity:    0.0252957
Arg of perigee:   355.9272 deg
Mean anomaly:     003.9864 deg
Mean motion:   14.78975612 rev/day
Decay rate:      6.322e-05 rev/day^2
Epoch rev:            1541
Checksum:              320

Satellite: RS-39
Catalog number: 38051
Epoch time:      12040.77677083
Element set:      48
Inclination:      051.6502 deg
RA of node:       050.6986 deg
Eccentricity:    0.0011282
Arg of perigee:   303.9512 deg
Mean anomaly:     045.7028 deg
Mean motion:   15.22167607 rev/day
Decay rate:      7.271e-05 rev/day^2
Epoch rev:             239
Checksum:              286

/EX


More information about the Keps mailing list